| time (UTC) | temp F | wind direction | speed MPH | gust MPH | rain 1hr in | rain 24hr in | rain mn in | humidity % | barometer mb |
| 20260504174519 | 78 | 20 | 7.0 | 12.0 | 0.00 | 1.68 | 0.84 | 84 | 1013.8 |
| 20260504173018 | 78 | 34 | 9.0 | 13.0 | 0.00 | 1.68 | 0.84 | 83 | 1014.0 |
| 20260504171518 | 78 | 29 | 7.0 | 11.0 | 0.00 | 1.68 | 0.84 | 83 | 1013.9 |
| 20260504081548 | 75 | 323 | 6.0 | 9.0 | 0.13 | 1.68 | 0.84 | 91 | 1011.9 |
| 20260504044521 | 75 | 192 | 1.0 | 5.0 | 0.02 | 0.86 | 0.02 | 91 | 1014.2 |
| 20260504043021 | 76 | 181 | 3.0 | 6.0 | 0.02 | 0.86 | 0.02 | 90 | 1014.2 |
| 20260504041517 | 76 | 201 | 1.0 | 5.0 | 0.00 | 0.84 | 0.00 | 90 | 1014.0 |
| 20260504040015 | 75 | 212 | 1.0 | 4.0 | 0.01 | 0.84 | 0.00 | 90 | 1014.0 |
| 20260504034515 | 75 | 221 | 1.0 | 5.0 | 0.02 | 0.85 | 0.84 | 90 | 1013.8 |
| 20260504033015 | 75 | 218 | 2.0 | 5.0 | 0.08 | 0.85 | 0.84 | 90 | 1013.8 |
| 20260504031514 | 75 | 199 | 2.0 | 6.0 | 0.08 | 0.85 | 0.84 | 89 | 1014.1 |
| 20260504030015 | 75 | 199 | 2.0 | 5.0 | 0.07 | 0.84 | 0.83 | 88 | 1014.3 |
| 20260504024512 | 75 | 162 | 2.0 | 11.0 | 0.05 | 0.82 | 0.81 | 87 | 1014.3 |
| 20260504023013 | 76 | 188 | 2.0 | 6.0 | 0.00 | 0.77 | 0.76 | 85 | 1014.6 |
| 20260504021611 | 76 | 188 | 1.0 | 5.0 | 0.00 | 0.77 | 0.76 | 85 | 1014.4 |
| 20260504020013 | 76 | 221 | 1.0 | 3.0 | 0.00 | 0.77 | 0.76 | 86 | 1014.3 |
| 20260504014510 | 78 | 353 | 0.0 | 5.0 | 0.00 | 0.77 | 0.76 | 86 | 1013.9 |
| 20260504013013 | 78 | 187 | 1.0 | 3.0 | 0.00 | 0.77 | 0.76 | 87 | 1013.9 |
| 20260504011509 | 78 | 202 | 0.0 | 0.0 | 0.00 | 0.77 | 0.76 | 87 | 1014.1 |
| 20260504010010 | 78 | 41 | 0.0 | 0.0 | 0.00 | 0.77 | 0.76 | 86 | 1013.6 |
| 20260504004509 | 78 | 41 | 0.0 | 2.0 | 0.00 | 0.77 | 0.76 | 86 | 1013.5 |
| 20260504003008 | 78 | 82 | 0.0 | 0.0 | 0.00 | 0.77 | 0.76 | 85 | 1013.4 |
| 20260504001508 | 78 | 82 | 0.0 | 0.0 | 0.00 | 0.77 | 0.76 | 85 | 1013.3 |
| 20260504000017 | 78 | 68 | 1.0 | 3.0 | 0.00 | 0.77 | 0.76 | 85 | 1013.0 |
| 20260503234507 | 78 | 96 | 1.0 | 3.0 | 0.00 | 0.77 | 0.76 | 85 | 1012.9 |
| 20260503233006 | 78 | 80 | 0.0 | 4.0 | 0.00 | 0.77 | 0.76 | 84 | 1012.9 |
| 20260503231505 | 78 | 129 | 1.0 | 5.0 | 0.00 | 0.77 | 0.76 | 83 | 1012.5 |
| 20260503230007 | 78 | 49 | 0.0 | 2.0 | 0.00 | 0.77 | 0.76 | 84 | 1012.4 |
| 20260503224506 | 78 | 59 | 0.0 | 2.0 | 0.00 | 0.77 | 0.76 | 83 | 1012.7 |
| 20260503223005 | 78 | 68 | 0.0 | 4.0 | 0.00 | 0.77 | 0.76 | 83 | 1012.5 |
| 20260503221503 | 78 | 91 | 1.0 | 4.0 | 0.00 | 0.77 | 0.76 | 84 | 1012.4 |
| 20260503220005 | 77 | 67 | 1.0 | 4.0 | 0.00 | 0.77 | 0.76 | 84 | 1012.3 |
| 20260503214511 | 77 | 74 | 0.0 | 3.0 | 0.00 | 0.77 | 0.76 | 86 | 1012.6 |
| 20260503213002 | 76 | 33 | 1.0 | 4.0 | 0.00 | 0.77 | 0.76 | 87 | 1012.5 |
| 20260503211503 | 75 | 72 | 2.0 | 4.0 | 0.00 | 0.77 | 0.76 | 87 | 1012.6 |
| 20260503210003 | 75 | 34 | 2.0 | 6.0 | 0.00 | 0.77 | 0.76 | 88 | 1012.8 |
| 20260503204610 | 75 | 156 | 1.0 | 4.0 | 0.28 | 0.77 | 0.76 | 88 | 1013.2 |
| 20260503203107 | 75 | 53 | 1.0 | 6.0 | 0.39 | 0.77 | 0.76 | 89 | 1013.5 |
| 20260503201559 | 74 | 44 | 3.0 | 8.0 | 0.46 | 0.77 | 0.76 | 89 | 1013.5 |
| 20260503200057 | 74 | 47 | 5.0 | 6.0 | 0.69 | 0.77 | 0.76 | 89 | 1013.4 |
| 20260503194616 | 75 | 176 | 2.0 | 5.0 | 0.46 | 0.49 | 0.48 | 89 | 1014.5 |
| 20260503193054 | 74 | 27 | 1.0 | 3.0 | 0.35 | 0.38 | 0.37 | 87 | 1013.9 |
| 20260503191556 | 75 | 229 | 0.0 | 4.0 | 0.28 | 0.31 | 0.30 | 86 | 1014.4 |
| 20260503190059 | 77 | 247 | 1.0 | 4.0 | 0.05 | 0.08 | 0.07 | 84 | 1014.7 |
| 20260503184546 | 79 | 184 | 2.0 | 7.0 | 0.02 | 0.03 | 0.02 | 85 | 1014.6 |
| 20260503183051 | 79 | 25 | 4.0 | 10.0 | 0.02 | 0.03 | 0.02 | 88 | 1014.5 |
| 20260503181544 | 79 | 27 | 5.0 | 9.0 | 0.02 | 0.03 | 0.02 | 88 | 1014.5 |
| 20260503180051 | 79 | 8 | 8.0 | 11.0 | 0.02 | 0.03 | 0.02 | 87 | 1014.5 |